CAPE
559 544 415 311 311 180 0 56 60 29 148 165 194 182 0 0 0 0 0 0 0 0 0 0 0 0 0 0 0 0 0 0 0 0 0 0 0 0 0 0 0 0
502 444 388 356 229 101 32 36 62 94 189 188 163 133 17 0 0 0 0 0 0 0 0 0 0 0 0 0 0 0 0 0 0 0 0 0 0 0 0 0 0 0
507 419 410 292 148 84 94 113 180 250 205 183 28 0 0 0 0 0 0 0 0 0 0 0 0 0 0 0 0 0 0 0 0 0 0 0 0 0 0 0 0 0
466 472 397 240 44 106 158 154 210 205 171 27 0 0 0 0 0 0 0 0 0 0 0 0 0 0 0 0 0 0 0 0 0 0 0 0 0 0 0 0 0 0
496 428 369 145 0 114 211 172 220 203 27 0 0 0 0 0 0 0 0 0 0 0 0 0 0 0 0 0 0 0 0 0 0 0 0 0 0 0 0 0 0 0
491 414 300 172 172 220 189 193 260 225 15 0 0 0 0 0 0 0 0 0 0 0 0 0 0 0 0 0 0 0 0 0 0 0 0 0 0 0 0 0 0 0
503 381 226 188 242 288 256 287 295 247 8 0 0 0 0 0 0 0 0 0 0 0 0 0 0 0 0 0 0 0 0 0 0 0 0 0 0 0 0 0 0 0
540 255 201 252 332 352 315 338 350 314 189 0 0 0 0 0 0 0 0 0 0 0 0 0 0 0 0 0 0 0 0 0 0 0 0 0 0 0 0 0 0 0
534 272 261 392 339 379 383 376 368 350 277 169 113 94 0 0 0 0 0 0 0 0 0 0 0 0 0 0 0 0 0 0 0 0 0 0 0 0 0 0 0 0
680 303 364 388 353 445 445 415 347 368 311 212 183 143 128 5 0 4 6 0 0 0 0 0 0 0 0 0 0 0 0 0 0 0 0 0 0 0 0 0 0 0
511 346 455 421 475 448 458 429 397 370 325 248 254 252 160 184 119 119 142 109 10 26 0 0 0 0 0 0 0 0 0 0 0 0 0 0 0 0 0 0 0 0
371 383 407 439 424 494 453 434 407 384 347 321 301 313 246 235 232 112 183 190 96 120 27 0 0 0 0 0 0 0 0 0 0 0 0 0 0 0 0 0 0 0
360 454 426 417 470 502 458 442 415 390 381 414 370 354 276 259 297 207 221 228 152 166 116 0 0 0 0 0 0 0 0 0 0 0 0 0 0 0 0 0 0 0
420 426 375 395 448 472 441 434 428 406 433 427 427 421 342 314 343 278 258 259 182 197 151 0 0 0 0 0 0 0 0 0 0 0 0 0 0 0 0 0 0 0
403 351 320 353 403 460 450 452 450 452 468 466 473 449 339 349 322 245 278 280 200 189 163 0 0 0 0 0 0 0 0 0 0 0 0 0 0 0 0 0 0 0
339 384 402 379 403 468 479 449 477 505 516 495 476 450 353 361 337 266 274 270 190 185 140 0 0 0 0 0 0 0 0 0 0 0 0 0 0 0 0 0 0 0
374 377 388 405 390 434 450 492 500 465 512 507 469 459 384 368 330 252 272 245 191 188 151 65 0 0 0 0 0 0 0 0 0 0 0 0 0 0 0 0 0 0
317 340 354 355 336 381 424 440 466 460 497 512 423 426 338 338 298 222 225 196 155 160 128 60 0 0 0 0 0 0 0 0 0 0 0 0 0 0 0 0 0 0
309 292 280 270 258 287 372 390 444 448 521 430 364 347 284 264 220 83 90 111 122 127 106 25 0 0 0 0 0 0 0 0 0 0 0 0 0 0 0 0 0 0
302 279 281 263 248 258 379 386 421 433 433 347 262 220 198 76 107 112 90 61 64 82 66 6 0 0 0 0 0 0 0 0 0 0 0 0 0 0 0 0 0 0
288 300 294 276 102 102 315 390 405 429 382 302 117 0 141 143 133 110 52 37 37 41 26 0 0 0 0 0 0 0 0 0 0 1 0 0 0 0 0 0 0 0
253 263 269 257 75 187 322 378 384 379 187 190 183 177 183 167 117 66 39 14 11 12 7 0 0 0 0 0 0 0 0 0 0 1 0 0 0 0 0 0 0 0
373 359 286 181 189 230 354 380 356 344 301 243 214 229 208 144 88 60 22 0 1 0 3 0 0 0 0 0 0 0 0 0 0 0 0 0 0 0 0 0 0 0
568 508 457 435 368 282 266 310 327 292 288 252 226 210 174 140 108 68 16 0 0 0 0 0 0 0 0 0 0 0 0 0 0 0 0 0 0 0 0 0 1 0
438 378 402 469 488 466 412 381 376 368 314 254 221 159 151 150 142 91 50 0 0 0 0 0 0 0 0 0 0 0 0 0 0 0 0 0 0 0 0 0 0 0
436 370 346 261 268 298 211 193 125 196 188 152 59 112 237 203 104 104 22 0 0 0 0 0 0 0 0 0 0 0 0 0 0 0 0 0 0 0 0 0 0 0
Wind_Speed
22 19 19 19 19 20 nan nan nan nan 19 19 19 20 nan nan nan nan nan nan nan nan nan nan nan nan nan nan nan nan nan nan nan nan nan nan nan nan nan nan nan nan
23 21 20 20 20 21 nan nan nan nan 20 20 20 21 nan nan nan nan nan nan nan nan nan nan nan nan nan nan nan nan nan nan nan nan nan nan nan nan nan nan nan nan
23 23 22 21 21 nan nan 21 20 20 19 20 nan nan nan nan nan nan nan nan nan nan nan nan nan nan nan nan nan nan nan nan nan nan nan nan nan nan nan nan nan nan
23 22 21 22 nan 23 23 21 20 20 20 nan nan nan nan nan nan nan nan nan nan nan nan nan nan nan nan nan nan nan nan nan nan nan nan nan nan nan nan nan nan nan
22 21 21 22 nan 22 22 20 20 19 nan nan nan nan nan nan nan nan nan nan nan nan nan nan nan nan nan nan nan nan nan nan nan nan nan nan nan nan nan nan nan nan
21 22 22 22 22 23 20 19 20 20 nan nan nan nan nan nan nan nan nan nan nan nan nan nan nan nan nan nan nan nan nan nan nan nan nan nan nan nan nan nan nan nan
24 22 22 21 22 21 20 19 20 21 nan nan nan nan nan nan nan nan nan nan nan nan nan nan nan nan nan nan nan nan nan nan nan nan nan nan nan nan nan nan nan nan
25 22 21 21 21 20 19 20 20 21 22 nan nan nan nan nan nan nan nan nan nan nan nan nan nan nan nan nan nan nan nan nan nan nan nan nan nan nan nan nan nan nan
25 22 21 21 21 19 20 20 21 22 22 23 23 nan nan nan nan nan nan nan nan nan nan nan nan nan nan nan nan nan nan nan nan nan nan nan nan nan nan nan nan nan
24 22 21 21 20 19 21 21 22 22 22 23 24 24 25 nan nan nan nan nan nan nan nan nan nan nan nan nan nan nan nan nan nan nan nan nan nan nan nan nan nan nan
24 23 21 20 20 20 22 22 23 22 22 24 25 25 27 27 27 27 27 27 nan nan nan nan nan nan nan nan nan nan nan nan nan nan nan nan nan nan nan nan nan nan
24 22 22 21 22 22 23 23 23 22 24 24 25 27 27 27 27 27 26 28 nan 32 nan nan nan nan nan nan nan nan nan nan nan nan nan nan nan nan nan nan nan nan
23 22 22 22 22 22 22 23 23 23 24 25 26 27 27 27 27 27 28 30 32 33 35 nan nan nan nan nan nan nan nan nan nan nan nan nan nan nan nan nan nan nan
23 22 22 22 22 23 23 23 24 24 24 26 27 27 27 27 28 29 30 31 33 35 37 nan nan nan nan nan nan nan nan nan nan nan nan nan nan nan nan nan nan nan
24 23 22 22 23 23 23 23 24 24 25 26 26 27 26 28 29 31 32 33 36 37 39 nan nan nan nan nan nan nan nan nan nan nan nan nan nan nan nan nan nan nan
25 24 23 23 23 23 23 24 25 25 25 26 26 28 28 29 31 32 33 35 37 39 40 nan nan nan nan nan nan nan nan nan nan nan nan nan nan nan nan nan nan nan
27 26 25 24 24 23 24 25 26 26 26 27 28 29 30 31 32 34 34 36 39 40 42 nan nan nan nan nan nan nan nan nan nan nan nan nan nan nan nan nan nan nan
27 27 26 25 25 25 25 26 27 27 27 28 30 31 32 33 34 35 37 38 40 41 42 nan nan nan nan nan nan nan nan nan nan nan nan nan nan nan nan nan nan nan
28 28 27 26 26 27 27 27 28 28 29 30 31 32 33 35 36 nan nan 40 41 42 42 nan nan nan nan nan nan nan nan nan nan nan nan nan nan nan nan nan nan nan
29 29 28 27 28 28 29 29 29 29 30 31 32 34 34 nan 37 38 nan nan nan nan nan nan nan nan nan nan nan nan nan nan nan nan nan nan nan nan nan nan nan nan
30 29 29 29 29 30 30 30 30 30 32 32 33 nan 35 36 37 38 nan nan nan nan nan nan nan nan nan nan nan nan nan nan nan nan nan nan nan nan nan nan nan nan
29 30 30 30 nan 31 30 31 31 32 33 33 34 34 35 35 36 nan nan nan nan nan nan nan nan nan nan nan nan nan nan nan nan nan nan nan nan nan nan nan nan nan
29 31 31 31 32 32 31 32 33 34 33 33 34 34 35 35 nan nan nan nan nan nan nan nan nan nan nan nan nan nan nan nan nan nan nan nan nan nan nan nan nan nan
29 30 31 31 31 32 32 33 34 34 34 34 35 36 36 36 37 nan nan nan nan nan nan nan nan nan nan nan nan nan nan nan nan nan nan nan nan nan nan nan nan nan
29 30 31 31 31 31 33 35 35 35 35 36 36 36 37 37 37 nan nan nan nan nan nan nan nan nan nan nan nan nan nan nan nan nan nan nan nan nan nan nan nan nan
30 32 32 32 33 33 35 36 36 37 37 37 nan 37 38 39 40 40 nan nan nan nan nan nan nan nan nan nan nan nan nan nan nan nan nan nan nan nan nan nan nan nan
Wind_Direction
279 279 273 271 269 272 nan nan nan nan 268 269 267 266 nan nan nan nan nan nan nan nan nan nan nan nan nan nan nan nan nan nan nan nan nan nan nan nan nan nan nan nan
284 282 274 269 266 268 nan nan nan nan 269 265 261 260 nan nan nan nan nan nan nan nan nan nan nan nan nan nan nan nan nan nan nan nan nan nan nan nan nan nan nan nan
287 284 280 276 270 nan nan 272 273 269 264 260 nan nan nan nan nan nan nan nan nan nan nan nan nan nan nan nan nan nan nan nan nan nan nan nan nan nan nan nan nan nan
284 283 276 272 nan 274 274 276 275 267 261 nan nan nan nan nan nan nan nan nan nan nan nan nan nan nan nan nan nan nan nan nan nan nan nan nan nan nan nan nan nan nan
282 278 271 268 nan 275 277 277 275 267 nan nan nan nan nan nan nan nan nan nan nan nan nan nan nan nan nan nan nan nan nan nan nan nan nan nan nan nan nan nan nan nan
273 274 272 268 271 277 277 276 272 267 nan nan nan nan nan nan nan nan nan nan nan nan nan nan nan nan nan nan nan nan nan nan nan nan nan nan nan nan nan nan nan nan
278 275 271 265 269 272 273 272 268 267 nan nan nan nan nan nan nan nan nan nan nan nan nan nan nan nan nan nan nan nan nan nan nan nan nan nan nan nan nan nan nan nan
284 278 270 266 269 271 272 271 270 268 270 nan nan nan nan nan nan nan nan nan nan nan nan nan nan nan nan nan nan nan nan nan nan nan nan nan nan nan nan nan nan nan
282 279 271 272 273 273 276 274 271 269 271 273 273 nan nan nan nan nan nan nan nan nan nan nan nan nan nan nan nan nan nan nan nan nan nan nan nan nan nan nan nan nan
282 276 273 273 275 273 278 275 271 269 271 273 274 275 279 nan nan nan nan nan nan nan nan nan nan nan nan nan nan nan nan nan nan nan nan nan nan nan nan nan nan nan
280 277 275 275 274 273 277 273 271 269 270 274 276 279 281 282 283 285 288 293 nan nan nan nan nan nan nan nan nan nan nan nan nan nan nan nan nan nan nan nan nan nan
282 280 278 276 274 274 276 273 271 271 274 275 280 282 282 282 284 286 290 295 nan 300 nan nan nan nan nan nan nan nan nan nan nan nan nan nan nan nan nan nan nan nan
285 283 277 274 272 272 272 272 272 274 278 281 283 283 283 284 287 290 291 294 297 298 301 nan nan nan nan nan nan nan nan nan nan nan nan nan nan nan nan nan nan nan
285 282 276 271 270 272 273 273 273 276 280 281 283 284 286 288 291 292 292 294 295 298 299 nan nan nan nan nan nan nan nan nan nan nan nan nan nan nan nan nan nan nan
282 279 274 272 272 274 275 275 277 279 281 282 284 285 286 290 292 293 294 295 295 297 298 nan nan nan nan nan nan nan nan nan nan nan nan nan nan nan nan nan nan nan
280 277 277 275 275 277 278 279 280 282 284 286 288 288 289 291 293 293 294 295 296 296 298 nan nan nan nan nan nan nan nan nan nan nan nan nan nan nan nan nan nan nan
276 276 277 279 278 277 277 281 283 283 286 289 290 290 291 292 293 294 295 294 296 297 298 nan nan nan nan nan nan nan nan nan nan nan nan nan nan nan nan nan nan nan
275 279 280 280 281 280 281 282 282 285 288 290 290 292 291 292 293 294 294 294 295 297 299 nan nan nan nan nan nan nan nan nan nan nan nan nan nan nan nan nan nan nan
277 279 282 282 283 283 282 281 284 287 289 290 291 290 290 291 292 nan nan 295 297 300 301 nan nan nan nan nan nan nan nan nan nan nan nan nan nan nan nan nan nan nan
276 279 281 282 283 283 283 284 287 288 287 286 286 286 288 nan 291 294 nan nan nan nan nan nan nan nan nan nan nan nan nan nan nan nan nan nan nan nan nan nan nan nan
278 280 282 282 283 283 284 286 287 286 287 285 285 nan 288 290 293 295 nan nan nan nan nan nan nan nan nan nan nan nan nan nan nan nan nan nan nan nan nan nan nan nan
280 280 281 280 nan 283 286 288 288 287 287 285 286 287 288 290 291 nan nan nan nan nan nan nan nan nan nan nan nan nan nan nan nan nan nan nan nan nan nan nan nan nan
279 280 280 281 282 284 286 287 288 288 287 285 287 288 290 292 nan nan nan nan nan nan nan nan nan nan nan nan nan nan nan nan nan nan nan nan nan nan nan nan nan nan
278 281 282 283 284 287 288 285 284 284 285 285 289 289 291 292 293 nan nan nan nan nan nan nan nan nan nan nan nan nan nan nan nan nan nan nan nan nan nan nan nan nan
281 283 285 286 288 291 288 287 287 286 285 285 286 288 291 293 296 nan nan nan nan nan nan nan nan nan nan nan nan nan nan nan nan nan nan nan nan nan nan nan nan nan
280 283 284 287 291 291 290 290 288 286 287 288 nan 291 293 295 297 297 nan nan nan nan nan nan nan nan nan nan nan nan nan nan nan nan nan nan nan nan nan nan nan nan